Regional Weather Roundup
Issued by NWS

Home | Current Version | Previous Version | Graphics & Text | Print | Product List | Glossary On
Versions: 1 2 3 4 5 6 7 8 9 10 11 12 13 14 15 16 17 18 19 20 21 22 23 24 25 26 27 28 29 30 31 32 33 34 35 36 37 38 39 40 41 42 43 44 45 46 47 48 49 50
421
ASUS43 KMPX 210910
RWRMN
WEATHER ROUNDUP FOR MINNESOTA
NATIONAL WEATHER SERVICE TWIN CITIES/CHANHASSEN MN
300 AM CST WED FEB 21 2018


NOTE: "FAIR" INDICATES FEW OR NO CLOUDS BELOW 12,000 FEET WITH NO
SIGNIFICANT WEATHER AND/OR OBSTRUCTIONS TO VISIBILITY. N/A MEANS
CURRENT SKY AND/OR WEATHER CONDITIONS ARE NOT AVAILABLE.

MNZ060>063-068>070-211000-
   Twin Cities Metro

CITY           SKY/WX    TMP DP  RH WIND       PRES   REMARKS
TWIN CITIES    FAIR       6   1  80 CALM      30.45R
ST PAUL        FAIR       7   1  76 CALM      30.47R
CRYSTAL        FAIR       5  -2  72 W7        30.43R WCI  -7
BLAINE         FAIR       7   1  78 SW5       30.43R WCI  -2
LAKEVILLE      FAIR       1  -2  85 W3        30.45R
EDEN PRAIRIE   FAIR       4  -2  76 W5        30.44R WCI  -5
SOUTH ST PAUL  FAIR       7   1  76 W6        30.45R WCI  -3
LAKE ELMO      FAIR       3   0  85 CALM      30.44R
$$
MNZ001>005-007-008-013>017-022>024-027-028-211000-
   Northwest Minnesota

CITY           SKY/WX    TMP DP  RH WIND       PRES   REMARKS
BEMIDJI        FAIR      -2  -6  82 W8        30.26S WCI -16
HALLOCK        FAIR      -2  -8  78 SW8       30.24S WCI -17
ROSEAU         FAIR       0  -6  78 SW12      30.21R WCI -18
WARROAD        FAIR       0  -6  78 SW12      30.20S WCI -18
THIEF RVR FALL FAIR      -4  -9  79 SW12      30.27R WCI -22
CROOKSTON      FAIR      -6 -11  77 S9        30.32R WCI -22
FOSSTON        FAIR      -9 -15  77 S9        30.28S WCI -27
DETROIT LAKES  FAIR       0  -6  78 SW6       30.32R WCI -12
MOORHEAD       FAIR      -2  -9  71 SW7       30.37S WCI -16
PARK RAPIDS    FAIR      -8 -15  71 SW7       30.29R WCI -23
MAHNOMEN       FAIR      -8 -12  81 SW10      30.30S WCI -26
$$
MNZ006-009>011-018-025>026-211000-
   North Central Minnesota

CITY           SKY/WX    TMP DP  RH WIND       PRES   REMARKS
BAUDETTE       FAIR      -5  -9  83 S8        30.20S WCI -20
FLAG ISLAND    FAIR      -2  -8  78 SW13      30.17S WCI -21
INTL FALLS     FAIR      -7 -10  87 SW5       30.23R WCI -18
WASKISH        FAIR       0  -4  85 SW10      30.25R WCI -17
BIG FORK       FAIR      -6  -9  84 SW5       30.25R WCI -17
LONGVILLE      FAIR     -15 -18  84 CALM      30.30R
GRAND RAPIDS   FAIR       0  -4  83 SW5       30.30R WCI -10
CRANE LAKE     FLURRIES  -4  -8  84 CALM      30.27S
ORR            FAIR      -2  -8  78 CALM      30.21S
COOK             N/A     -4  -8  84 CALM      30.25R
WALKER         FAIR      -2  -7  82 SW6       30.28S WCI -14
$$
MNZ012-019>021-037-211000-
   Northeast Minnesota

CITY           SKY/WX    TMP DP  RH WIND       PRES   REMARKS
DULUTH         FAIR       1  -4  79 W13       30.27R WCI -17
ELY            LGT SNOW   0  -4  85 SW5       30.24R WCI -10
HIBBING        FAIR     -12 -15  86 SW3       30.27R
EVELETH        FLURRIES N/A N/A N/A SW5       30.27S
DULUTH HARBOR  FAIR       3   0  85 S8        30.38R WCI -10
TWO HARBORS    FAIR       7   0  72 W7G18     30.26S WCI  -5
GRAND MARAIS     N/A     10   1  67 W5        30.28R WCI   2
G MARAIS ARPRT FAIR       1  -6  71 W6        30.15R WCI -10
$$
MNZ029>031-032-039>041-046>048-054>057-064-211000-
   West Central Minnesota

CITY           SKY/WX    TMP DP  RH WIND       PRES   REMARKS
FERGUS FALLS   FAIR      -6  -9  84 CALM      30.40R
WHEATON        CLOUDY    -2  -9  71 W7        30.43R WCI -16
MORRIS         CLEAR     -6  -9  84 SW7       30.40R WCI -20
ALEXANDRIA     FAIR       0  -6  76 W12       30.36R WCI -17
ELBOW LAKE     FAIR      -8 -12  84 SW8       30.39R WCI -24
WADENA         FAIR      -4  -8  84 SW8       30.33R WCI -19
GLENWOOD       FAIR      -2  -8  78 W6        30.38S WCI -14
APPLETON       CLEAR      0  -8  71 W10       30.44S WCI -17
BENSON         CLOUDY    -4  -9  77 NW9       30.43R WCI -20
ORTONVILLE     CLOUDY    -2  -9  71 W6        30.43S WCI -14
MADISON        CLEAR      0  -8  71 W9        30.46R WCI -16
WILLMAR        FAIR      -2  -8  78 W3        30.44S
$$
MNZ033>034-036-042>043-049>051-058-059-211000-
   Central Minnesota

CITY           SKY/WX    TMP DP  RH WIND       PRES   REMARKS
ST CLOUD       FAIR      -4  -7  87 SW8       30.41R WCI -19
SAUK CENTRE    FAIR      -3  -8  81 W6        30.38S WCI -15
PAYNESVILLE    FAIR      -7 -10  83 W6        30.41R WCI -20
AITKIN         FAIR      -2  -6  84 SW3       30.33R
PINE RIVER     FAIR      -9 -13  84 CALM      30.35R
BRAINERD       FAIR       0  -7  72 S5        30.35R WCI -10
STAPLES        FAIR       0  -6  78 SW7       30.34R WCI -13
LONG PRAIRIE   FAIR       0  -6  78 SW5       30.37R WCI -10
LITTLE FALLS   FAIR      -4 -13  65 CALM      30.39R
LITCHFIELD     FAIR       0  -4  85 SW3       30.43R
BUFFALO        FAIR       1  -3  82 SW3       30.44R
MAPLE LAKE     FAIR       1  -2  86 SW3       30.43R
HUTCHINSON     FAIR      -1  -5  82 W6        30.45R WCI -13
$$
MNZ037-044-045-052-053-211000-
   East Central Minnesota

CITY           SKY/WX    TMP DP  RH WIND       PRES   REMARKS
PRINCETON      FAIR       0  -4  85 SW3       30.40R
MORA           FAIR       0  -4  85 W5        30.40R WCI -10
CAMBRIDGE        N/A      1  -6  71 SW3       30.42R
RUSH CITY      MOCLDY    -1  -4  85 SW3       30.41R
MOOSE LAKE     FAIR       0  -6  78 SW5       30.34R WCI -10
HINCKLEY       FAIR      -2  -6  84 W5        30.38S WCI -12
CLOQUET        FAIR       1  -6  71 W8        30.30S WCI -12
MCGREGOR       FAIR       1  -4  78 SW3       30.33S
$$
MNZ071>073-080-081-089-090-097-098-211000-
   Southwest Minnesota

CITY           SKY/WX    TMP DP  RH WIND       PRES   REMARKS
MONTEVIDEO     PTCLDY     0  -6  78 W7        30.45S WCI -13
GRANITE FALLS  PTCLDY    -4  -8  82 W7        30.47S WCI -17
CANBY          CLOUDY     2  -5  72 NW15      30.46R WCI -17
MARSHALL       CLOUDY    -5 -10  79 W8        30.46R WCI -20
REDWOOD FALLS  CLOUDY     2  -4  76 W9        30.46R WCI -13
OLIVIA         CLOUDY     0  -6  78 W7        30.45R WCI -13
PIPESTONE      CLOUDY    -2  -8  78 NW7       30.42R WCI -16
WORTHINGTON    CLOUDY     0  -4  83 W10       30.45R WCI -16
JACKSON        CLOUDY     1  -4  78 W5        30.45R WCI  -8
TRACY          CLOUDY     4  -2  76 W7        30.44R WCI  -9
SLAYTON        PTCLDY    -2  -6  82 W7        30.44R WCI -15
$$
MNZ065>067-074>077-082>085-091>093-211000-
   South Central Minnesota

CITY           SKY/WX    TMP DP  RH WIND       PRES   REMARKS
MANKATO        FAIR       5  -1  76 W8        30.47R WCI  -8
NEW ULM        PTCLDY     0  -6  78 SW6       30.47R WCI -12
ST JAMES       CLEAR      1  -2  85 W6        30.48R WCI -10
FAIRMONT       CLEAR      3  -2  79 W9        30.48R WCI -12
GLENCOE        FAIR       2  -3  81 SW3       30.45R
FARIBAULT      FAIR       3   0  85 CALM      30.46R
OWATONNA       FAIR       3   0  85 CALM      30.45R
WASECA         FAIR       3   0  85 W3        30.48R
ALBERT LEA     FAIR       7   1  78 NW3       30.44R
$$
MNZ078>079-086>088-094>096-211000-
   Southeast Minnesota

CITY           SKY/WX    TMP DP  RH WIND       PRES   REMARKS
ROCHESTER      MIX PCPN   6   3  87 NW12      30.41R WCI  -9
RED WING       FAIR       5   0  78 CALM      30.45R
STANTON        FAIR       5   0  79 CALM      30.45R
DODGE CENTER   FAIR       5   0  78 W5        30.41R WCI  -4
WINONA         FAIR      10   5  79 NW6       30.45R WCI   1
AUSTIN         FAIR       7   1  78 NW6       30.44R WCI  -3
PRESTON        FAIR       7   2  80 NW8       30.42R WCI  -5
$$
ABBREVIATIONS USED IN REMARKS
   TC - TEMPERATURES IN CELSIUS
  WCI - WIND CHILL INDEX
   HX - HEAT INDEX
  VSB - VISIBILITY
$$




USA.gov is the U.S. government's official web portal to all federal, state and local government web resources and services.